1515708001.06,10588,9.44,73260.3,-5.03,-7.91,-8.21,0,*56
1515708002.3,10589,9.44,73256.3,-5.03,-7.95,-8.21,0,*53
1515708003.55,10590,9.44,73260.5,-5.03,-7.95,-8.21,0,*5B
1515708004.76,10591,9.44,73260.0,-5.05,-7.95,-8.33,0,*5F
1515708006.0,10592,9.44,73256.3,-5.03,-7.91,-8.21,0,*5D
1515708007.25,10593,9.44,73260.0,-5.03,-7.91,-8.21,0,*5C
1515708008.46,10594,9.44,73262.0,-5.01,-7.95,-8.29,0,*55
1515708009.7,10595,9.44,73258.3,-5.03,-7.95,-8.21,0,*5E
1515708010.95,10596,9.44,73260.5,-5.03,-7.95,-8.21,0,*5D
1515708012.19,10597,9.44,73258.3,-5.03,-7.95,-8.29,0,*54
1515708013.42,10598,9.44,73262.5,-5.03,-7.95,-8.29,0,*5B
1515708014.66,10599,9.44,73262.8,-5.03,-7.91,-8.29,0,*5E
1515708015.9,10600,9.44,73256.0,-5.03,-7.91,-8.29,0,*5D
1515708017.14,10601,9.44,73260.3,-5.03,-7.95,-8.29,0,*58
1515708018.36,10602,9.44,73260.8,-5.03,-7.83,-8.21,0,*54
1515708019.6,10603,9.44,73262.5,-5.03,-7.95,-8.29,0,*5A
1515708020.82,10604,9.44,73262.5,-5.05,-7.99,-8.33,0,*5C
1515708022.04,10605,9.44,73260.8,-5.05,-8.07,-8.25,0,*52
1515708023.28,10606,9.44,73260.3,-5.03,-7.95,-8.29,0,*5F
1515708024.5,10607,9.44,73262.0,-5.05,-8.07,-8.25,0,*50
1515708025.74,10608,9.44,73258.8,-5.03,-7.95,-8.29,0,*51
1515708026.96,10609,9.44,73262.0,-5.05,-7.99,-8.25,0,*56
1515708028.19,10610,9.44,73262.0,-5.05,-7.99,-8.25,0,*5E
1515708029.41,10611,9.44,73260.3,-5.05,-7.99,-8.25,0,*5F
1515708030.64,10612,9.44,73258.8,-5.03,-8.03,-8.29,0,*5A
1515708031.89,10613,9.44,73262.5,-5.03,-8.07,-8.29,0,*5F
1515708033.13,10614,9.44,73262.0,-5.03,-7.95,-8.21,0,*54
1515708034.37,10615,9.44,73260.0,-5.03,-7.95,-8.21,0,*55
1515708035.61,10616,9.44,73260.3,-5.03,-7.95,-8.29,0,*5E
1515708036.83,10617,9.44,73254.8,-5.05,-7.99,-8.25,0,*59
1515708038.07,10618,9.44,73260.0,-5.03,-7.95,-8.29,0,*50
1515708039.32,10619,9.44,73260.5,-5.03,-7.95,-8.21,0,*59
1515708040.56,10620,9.44,73262.0,-5.03,-7.95,-8.29,0,*5B
1515708041.77,10621,9.44,73260.5,-5.05,-7.99,-8.33,0,*5B
1515708042.99,10622,9.44,73260.0,-5.05,-7.99,-8.33,0,*58
1515708044.23,10623,9.44,73260.3,-5.03,-7.95,-8.21,0,*50
1515708045.47,10624,9.44,73264.3,-5.03,-7.95,-8.29,0,*5F
1515708046.71,10625,9.44,73260.0,-5.07,-7.99,-8.25,0,*5A
1515708047.93,10626,9.44,73260.8,-5.05,-7.99,-8.25,0,*5B
1515708049.15,10627,9.44,73262.3,-5.05,-7.99,-8.33,0,*5D
1515708050.37,10628,9.44,73260.0,-5.05,-7.95,-8.25,0,*59
1515708051.59,10629,9.44,73260.5,-5.05,-7.99,-8.25,0,*54
1515708052.81,10630,9.44,73262.8,-5.05,-7.99,-8.25,0,*5C
1515708054.03,10631,9.44,73260.3,-5.05,-7.99,-8.25,0,*5D
1515708055.26,10632,9.44,73262.3,-5.05,-8.07,-8.25,0,*56
1515708056.47,10633,9.44,73258.3,-5.05,-7.99,-8.33,0,*58
1515708057.69,10634,9.44,73262.5,-5.05,-7.95,-8.25,0,*54
1515708058.91,10635,9.44,73260.3,-5.05,-7.95,-8.25,0,*55
1515708060.14,10636,9.44,73262.3,-5.05,-8.07,-8.25,0,*52
1515708061.35,10637,9.44,73264.8,-5.05,-7.95,-8.33,0,*50
1515708062.59,10638,9.44,73262.0,-5.03,-7.95,-8.29,0,*52
1515708063.84,10639,9.44,73262.0,-5.03,-7.95,-8.21,0,*5B
1515708065.08,10640,9.44,73260.8,-5.03,-7.95,-8.29,0,*5D
1515708066.32,10641,9.44,73260.5,-5.03,-7.95,-8.21,0,*54
1515708067.56,10642,9.44,73260.3,-5.03,-7.95,-8.29,0,*5F
1515708068.8,10643,9.44,73260.8,-5.03,-7.91,-8.21,0,*52
1515708070.02,10644,9.44,73258.8,-5.03,-7.83,-8.21,0,*56
1515708071.26,10645,9.44,73262.3,-5.03,-7.91,-8.21,0,*54
1515708072.45,10646,9.44,73260.8,-5.01,-7.83,-8.17,0,*53
1515708073.69,10647,9.44,73258.5,-5.03,-7.91,-8.21,0,*56
1515708074.93,10648,9.44,73260.0,-5.03,-7.95,-8.29,0,*55
1515708076.17,10649,9.44,73262.8,-5.03,-7.91,-8.21,0,*58
1515708077.42,10650,9.44,73262.3,-5.03,-7.95,-8.21,0,*54
1515708078.64,10651,9.44,73260.5,-5.05,-7.95,-8.25,0,*57
1515708079.86,10652,9.44,73256.8,-5.05,-7.95,-8.25,0,*54
1515708081.08,10653,9.44,73262.5,-5.05,-7.95,-8.25,0,*55
1515708082.32,10654,9.44,73256.3,-5.03,-7.91,-8.21,0,*54
1515708083.56,10655,9.44,73258.3,-5.03,-8.03,-8.21,0,*51
1515708084.8,10656,9.44,73260.0,-5.03,-7.95,-8.21,0,*52
1515708086.04,10657,9.44,73260.8,-5.03,-7.95,-8.21,0,*53
1515708087.28,10658,9.44,73258.8,-5.03,-7.95,-8.29,0,*54
1515708088.52,10659,9.44,73262.0,-5.03,-8.03,-8.21,0,*5D
1515708089.77,10660,9.44,73262.8,-5.03,-7.95,-8.21,0,*57
1515708091.01,10661,9.44,73258.5,-5.03,-7.95,-8.21,0,*56
1515708092.25,10662,9.44,73260.8,-5.03,-7.95,-8.21,0,*55
1515708093.5,10663,9.44,73260.3,-5.03,-7.95,-8.21,0,*54
1515708094.74,10664,9.44,73260.0,-5.03,-7.91,-8.21,0,*57
1515708095.98,10665,9.44,73256.8,-5.03,-7.95,-8.21,0,*52
1515708097.21,10666,9.44,73256.8,-5.05,-8.07,-8.21,0,*53
1515708098.45,10667,9.44,73260.3,-5.03,-7.95,-8.17,0,*55
1515708099.69,10668,9.44,73260.3,-5.03,-7.91,-8.17,0,*5E
1515708100.91,10669,9.44,73262.0,-5.05,-7.95,-8.21,0,*58
1515708102.11,10670,9.44,73258.5,-5.05,-7.87,-8.21,0,*53
1515708103.33,10671,9.44,73262.5,-5.05,-7.99,-8.21,0,*5D
1515708104.57,10672,9.44,73256.5,-5.03,-8.03,-8.17,0,*51
1515708105.79,10673,9.44,73258.3,-5.05,-7.99,-8.25,0,*5B
1515708107.03,10674,9.44,73254.8,-5.03,-7.95,-8.21,0,*52
1515708108.25,10675,9.44,73258.0,-5.05,-7.95,-8.25,0,*51
1515708109.47,10676,9.44,73258.3,-5.05,-7.99,-8.25,0,*5E
1515708110.69,10677,9.44,73258.5,-5.05,-7.99,-8.25,0,*5F
1515708111.92,10678,9.44,73262.3,-5.05,-8.07,-8.25,0,*58
1515708113.14,10679,9.44,73260.3,-5.05,-8.07,-8.25,0,*59
1515708114.36,10680,9.44,73262.5,-5.05,-7.99,-8.33,0,*50
1515708115.58,10681,9.44,73256.5,-5.05,-8.07,-8.25,0,*5E
1515708116.81,10682,9.44,73260.5,-5.05,-8.07,-8.25,0,*5D
1515708118.03,10683,9.44,73258.3,-5.05,-8.07,-8.33,0,*5B
1515708119.25,10684,9.44,73260.3,-5.05,-7.99,-8.25,0,*53
1515708120.47,10685,9.44,73260.0,-5.05,-7.95,-8.25,0,*5E
1515708121.69,10686,9.44,73258.8,-5.05,-7.99,-8.25,0,*51
1515708122.91,10687,9.44,73260.3,-5.05,-8.07,-8.25,0,*58
1515708124.14,10688,9.44,73258.8,-5.05,-8.07,-8.25,0,*57
1515708125.36,10689,9.44,73262.5,-5.05,-7.99,-8.25,0,*5E
1515708126.6,10690,9.44,73258.0,-5.07,-7.99,-8.25,0,*54
1515708127.82,10691,9.44,73258.3,-5.05,-8.07,-8.25,0,*5F
1515708129.04,10692,9.44,73256.8,-5.05,-7.99,-8.25,0,*54
1515708130.28,10693,9.44,73256.3,-5.07,-7.99,-8.25,0,*57
1515708131.53,10694,9.44,73256.8,-5.07,-8.07,-8.25,0,*58
1515708132.75,10695,9.44,73260.5,-5.05,-8.07,-8.25,0,*5B
1515708133.99,10696,9.44,73258.8,-5.07,-7.99,-8.25,0,*52
1515708135.21,10697,9.44,73258.8,-5.05,-7.99,-8.25,0,*51
1515708136.44,10698,9.44,73260.3,-5.05,-7.99,-8.25,0,*5E
1515708137.66,10699,9.44,73260.0,-5.05,-7.99,-8.25,0,*5F
1515708138.9,10700,9.44,73258.3,-5.07,-8.07,-8.25,0,*54
1515708140.14,10701,9.44,73258.8,-5.07,-8.07,-8.25,0,*55
1515708141.37,10702,9.44,73262.5,-5.05,-7.99,-8.25,0,*5C
1515708142.59,10703,9.44,73260.3,-5.05,-8.07,-8.25,0,*55
1515708143.84,10704,9.44,73260.8,-5.05,-7.99,-8.11,0,*5D
1515708145.08,10705,9.44,73260.0,-5.07,-7.95,-8.21,0,*51
1515708146.31,10706,9.44,73256.5,-5.05,-7.95,-8.21,0,*50
1515708147.55,10707,9.44,73260.3,-5.07,-7.95,-8.21,0,*53
1515708148.77,10708,9.44,73260.8,-5.05,-7.99,-8.21,0,*52
1515708150.0,10709,9.44,73260.5,-5.05,-7.99,-8.21,0,*53
1515708151.24,10710,9.44,73258.3,-5.07,-7.99,-8.21,0,*59
1515708152.46,10711,9.44,73262.3,-5.05,-7.99,-8.21,0,*5A
1515708153.69,10712,9.44,73260.0,-5.05,-8.07,-8.21,0,*51
1515708154.91,10713,9.44,73260.3,-5.05,-7.99,-8.21,0,*58
1515708156.14,10714,9.44,73262.8,-5.05,-7.99,-8.21,0,*5F
1515708157.36,10715,9.44,73256.8,-5.05,-7.99,-8.21,0,*5E
1515708158.58,10716,9.44,73258.0,-5.05,-7.99,-8.21,0,*5D
1515708159.81,10717,9.44,73258.5,-5.05,-7.99,-8.21,0,*5C
1515708161.03,10718,9.44,73260.3,-5.05,-7.99,-8.21,0,*53
1515708162.25,10719,9.44,73260.3,-5.05,-7.99,-8.21,0,*52
1515708163.48,10720,9.44,73258.5,-5.05,-7.99,-8.21,0,*58
1515708164.72,10721,9.44,73258.8,-5.07,-7.95,-8.21,0,*57
1515708165.95,10722,9.44,73256.8,-5.05,-7.99,-8.21,0,*5A
1515708167.17,10723,9.44,73256.5,-5.05,-7.99,-8.21,0,*5B
1515708168.39,10724,9.44,73258.5,-5.05,-7.99,-8.21,0,*5C
1515708169.63,10725,9.44,73262.8,-5.03,-7.95,-8.17,0,*52
1515708170.86,10726,9.44,73262.3,-5.05,-7.99,-8.21,0,*5E
1515708172.08,10727,9.44,73260.0,-5.05,-7.99,-8.21,0,*5F
1515708173.31,10728,9.44,73256.5,-5.05,-8.07,-8.21,0,*58
1515708174.53,10729,9.44,73256.8,-5.05,-8.07,-8.21,0,*59
1515708175.76,10730,9.44,73260.5,-5.05,-7.99,-8.21,0,*59
1515708176.98,10731,9.44,73260.0,-5.05,-7.99,-8.21,0,*58
1515708178.23,10732,9.44,73258.8,-5.07,-8.07,-8.21,0,*51
1515708179.48,10733,9.44,73258.3,-5.05,-8.07,-8.11,0,*51
1515708180.73,10734,9.44,73262.0,-5.05,-7.99,-8.11,0,*5E
1515708181.96,10735,9.44,73262.0,-5.05,-8.07,-8.21,0,*54
1515708183.18,10736,9.44,73260.8,-5.05,-7.99,-8.21,0,*5F
1515708184.4,10737,9.44,73262.5,-5.05,-7.99,-8.21,0,*5E
1515708185.63,10738,9.44,73262.5,-5.05,-8.07,-8.21,0,*59
1515708186.86,10739,9.44,73262.0,-5.05,-8.07,-8.21,0,*58
1515708188.08,10740,9.44,73260.0,-5.05,-7.99,-8.21,0,*5E
1515708189.33,10741,9.44,73258.5,-5.07,-7.99,-8.21,0,*5D
1515708190.55,10742,9.44,73266.0,-5.05,-7.99,-8.21,0,*5C
1515708191.8,10743,9.44,73262.8,-5.05,-7.99,-8.11,0,*5E
1515708193.02,10744,9.44,73256.8,-5.05,-7.99,-8.21,0,*5A
1515708194.25,10745,9.44,73260.0,-5.05,-7.95,-8.21,0,*57
1515708195.47,10746,9.44,73262.8,-5.05,-7.95,-8.21,0,*54
1515708196.69,10747,9.44,73262.5,-5.05,-7.95,-8.21,0,*55
1515708197.94,10748,9.44,73260.5,-5.05,-7.95,-8.11,0,*59
1515708199.16,10749,9.44,73262.8,-5.05,-7.95,-8.21,0,*5B
1515708200.39,10750,9.44,73260.8,-5.05,-7.87,-8.07,0,*54
1515708201.62,10751,9.44,73260.0,-5.05,-7.87,-8.07,0,*55
1515708202.84,10752,9.44,73262.3,-5.05,-7.87,-8.11,0,*51
1515708204.09,10753,9.44,73260.5,-5.05,-7.95,-8.11,0,*53
1515708205.32,10754,9.44,73260.8,-5.05,-7.99,-8.21,0,*5B
1515708206.54,10755,9.44,73262.0,-5.05,-7.95,-8.21,0,*56
1515708207.74,10756,9.44,73262.8,-5.05,-7.87,-8.21,0,*56
1515708208.96,10757,9.44,73262.3,-5.05,-7.95,-8.21,0,*54
1515708210.21,10758,9.44,73262.3,-5.07,-7.95,-8.21,0,*59
1515708211.42,10759,9.44,73258.5,-5.03,-7.83,-8.17,0,*5E
1515708212.64,10760,9.44,73260.0,-5.05,-7.87,-8.11,0,*50
1515708213.87,10761,9.44,73260.8,-5.05,-7.87,-8.11,0,*51
1515708215.07,10762,9.44,73262.8,-5.05,-7.87,-8.21,0,*51
1515708216.29,10763,9.44,73264.8,-5.05,-7.95,-8.21,0,*53
1515708217.49,10764,9.44,73262.0,-5.05,-7.87,-8.21,0,*57
1515708218.74,10765,9.44,73260.8,-5.05,-7.95,-8.11,0,*56
1515708219.98,10766,9.44,73262.0,-5.03,-7.83,-8.11,0,*54
1515708221.23,10767,9.44,73262.0,-5.03,-7.83,-8.07,0,*52
1515708222.47,10768,9.44,73264.3,-5.03,-7.91,-8.17,0,*5F
1515708223.69,10769,9.44,73260.8,-5.05,-7.87,-8.11,0,*59
1515708224.94,10770,9.44,73264.0,-5.07,-7.87,-8.11,0,*53
1515708226.16,10771,9.44,73262.5,-5.05,-7.83,-8.11,0,*54
1515708227.36,10772,9.44,73262.3,-5.05,-7.87,-8.21,0,*50
1515708228.58,10773,9.44,73260.3,-5.05,-7.87,-8.11,0,*52
1515708229.82,10774,9.44,73260.8,-5.03,-7.91,-8.17,0,*52
1515708231.09,10775,9.44,73258.8,-5.03,-7.91,-8.07,0,*52
1515708232.29,10776,9.44,73262.0,-5.05,-7.87,-8.21,0,*54
1515708233.52,10777,9.44,73262.5,-5.05,-7.87,-8.11,0,*56
1515708234.71,10778,9.44,73262.3,-5.05,-7.87,-8.21,0,*5A
1515708235.96,10779,9.44,73262.5,-5.03,-7.83,-8.07,0,*5D
1515708237.18,10780,9.44,73260.3,-5.03,-7.83,-8.17,0,*5A
1515708238.4,10781,9.44,73262.5,-5.05,-7.87,-8.11,0,*5F
1515708239.62,10782,9.44,73260.3,-5.03,-7.83,-8.17,0,*58
1515708240.87,10783,9.44,73260.0,-5.01,-7.91,-8.07,0,*59
1515708242.08,10784,9.44,73258.3,-5.03,-7.83,-8.17,0,*5E
1515708243.33,10785,9.44,73256.8,-5.03,-7.83,-8.07,0,*5E
1515708244.58,10786,9.44,73262.8,-5.03,-7.83,-8.07,0,*5D
1515708245.86,10787,9.44,73262.5,-5.03,-7.77,-8.07,0,*57
1515708247.11,10788,9.44,73262.3,-5.03,-7.83,-8.07,0,*53
1515708248.36,10789,9.44,73262.8,-5.03,-7.83,-8.07,0,*52
1515708249.57,10790,9.44,73262.5,-5.03,-7.83,-8.17,0,*5B
1515708250.79,10791,9.44,73262.8,-5.03,-7.83,-8.17,0,*5A
1515708252.06,10792,9.44,73262.0,-5.03,-7.91,-8.07,0,*5B
1515708253.31,10793,9.44,73260.0,-5.03,-7.83,-8.07,0,*59
1515708254.55,10794,9.44,73260.0,-5.03,-7.77,-8.17,0,*54
1515708255.8,10795,9.44,73260.5,-5.03,-7.83,-8.07,0,*5F
1515708257.05,10796,9.44,73266.0,-5.01,-7.77,-8.07,0,*55
1515708258.3,10797,9.44,73264.0,-5.03,-7.83,-8.07,0,*5D
1515708259.55,10798,9.44,73260.8,-5.03,-7.83,-8.07,0,*52
1515708260.8,10799,9.44,73260.8,-5.01,-7.77,-8.07,0,*5A
1515708262.05,10800,9.44,73260.3,-5.03,-7.83,-8.07,0,*5C
1515708263.32,10801,9.44,73262.0,-5.03,-7.77,-8.07,0,*56
1515708264.59,10802,9.44,73260.5,-5.03,-7.91,-8.07,0,*5D
1515708265.83,10803,9.44,73260.5,-5.03,-7.83,-8.03,0,*5B
1515708267.11,10804,9.44,73258.5,-5.03,-7.77,-8.07,0,*53
1515708268.36,10805,9.44,73260.5,-5.03,-7.83,-8.07,0,*59
1515708269.62,10806,9.44,73264.8,-5.03,-7.69,-8.03,0,*5A
1515708270.9,10807,9.44,73262.3,-5.03,-7.77,-8.07,0,*50
1515708272.17,10808,9.44,73260.3,-5.03,-7.77,-8.07,0,*5F
1515708273.44,10809,9.44,73262.3,-5.03,-7.77,-8.07,0,*5E
1515708274.72,10810,9.44,73262.5,-5.03,-7.77,-8.07,0,*56
1515708275.99,10811,9.44,73264.0,-5.03,-7.77,-8.07,0,*57
1515708277.24,10812,9.44,73262.5,-5.03,-7.83,-8.07,0,*5F
1515708278.49,10813,9.44,73262.5,-5.03,-7.83,-8.07,0,*5E
1515708279.74,10814,9.44,73262.0,-5.03,-7.83,-8.07,0,*59
1515708281.01,10815,9.44,73266.3,-5.03,-7.77,-8.03,0,*57
1515708282.26,10816,9.44,73264.3,-5.03,-7.83,-8.07,0,*5B
1515708283.51,10817,9.44,73260.3,-5.03,-7.83,-8.07,0,*5A
1515708284.76,10818,9.44,73258.8,-5.03,-7.83,-8.07,0,*55
1515708286.03,10819,9.44,73262.3,-5.03,-7.77,-8.07,0,*5F
1515708287.3,10820,9.44,73260.5,-5.03,-7.77,-8.07,0,*55
1515708288.58,10821,9.44,73262.0,-5.03,-7.77,-8.07,0,*54
1515708289.82,10822,9.44,73264.3,-5.01,-7.77,-8.03,0,*51
1515708291.07,10823,9.44,73262.0,-5.03,-7.83,-8.07,0,*5D
1515708292.31,10824,9.44,73258.0,-5.03,-7.77,-8.17,0,*50
1515708293.58,10825,9.44,73262.8,-5.03,-7.77,-8.07,0,*50
1515708294.85,10826,9.44,73264.0,-5.03,-7.77,-8.07,0,*53
1515708296.13,10827,9.44,73262.5,-5.03,-7.77,-8.07,0,*52
1515708297.37,10828,9.44,73260.8,-5.03,-7.77,-8.17,0,*5C
1515708298.64,10829,9.44,73262.8,-5.03,-7.77,-8.07,0,*5C
1515708299.89,10830,9.44,73262.3,-5.03,-7.83,-8.07,0,*5F
1515708301.17,10831,9.44,73260.8,-5.03,-7.69,-8.07,0,*5A
1515708302.44,10832,9.44,73260.8,-5.03,-7.69,-8.07,0,*59
1515708303.66,10833,9.44,73262.8,-5.01,-7.83,-8.07,0,*5E
1515708304.94,10834,9.44,73260.5,-5.03,-7.77,-8.07,0,*50
1515708306.21,10835,9.44,73264.5,-5.03,-7.77,-8.07,0,*51
1515708307.48,10836,9.44,73262.3,-5.03,-7.77,-8.03,0,*56
1515708308.72,10837,9.44,73256.3,-5.03,-7.83,-8.07,0,*58
1515708309.94,10838,9.44,73262.3,-5.01,-7.77,-8.17,0,*5F
1515708311.21,10839,9.44,73260.0,-5.03,-7.77,-8.07,0,*5D
1515708312.48,10840,9.44,73260.5,-5.03,-7.77,-8.03,0,*57
1515708313.74,10841,9.44,73260.8,-5.03,-7.77,-8.03,0,*56
1515708315.02,10842,9.44,73262.8,-5.03,-7.77,-8.07,0,*51
1515708316.27,10843,9.44,73262.3,-5.03,-7.83,-8.07,0,*5B
1515708317.53,10844,9.44,73260.5,-5.03,-7.69,-8.03,0,*5C
1515708318.79,10845,9.44,73262.0,-5.03,-7.77,-8.03,0,*52
1515708320.01,10846,9.44,73262.5,-5.01,-7.77,-8.17,0,*56
1515708321.26,10847,9.44,73266.3,-5.03,-7.83,-8.07,0,*5F
1515708322.53,10848,9.44,73262.3,-5.03,-7.77,-8.07,0,*5B
1515708323.78,10849,9.44,73262.0,-5.03,-7.83,-8.07,0,*51
1515708325.03,10850,9.44,73264.8,-5.03,-7.83,-8.07,0,*59
1515708326.28,10851,9.44,73264.5,-5.01,-7.77,-8.07,0,*51
1515708327.55,10852,9.44,73260.3,-5.03,-7.77,-8.07,0,*50
1515708328.83,10853,9.44,73264.3,-5.03,-7.77,-8.07,0,*51
1515708330.09,10854,9.44,73264.0,-5.03,-7.77,-8.03,0,*52
1515708331.36,10855,9.44,73266.5,-5.03,-7.77,-8.07,0,*57
1515708332.64,10856,9.44,73260.8,-5.03,-7.77,-8.07,0,*54
1515708333.89,10857,9.44,73262.0,-5.03,-7.83,-8.07,0,*5E
1515708335.13,10858,9.44,73266.0,-5.03,-7.77,-8.17,0,*5B
1515708336.35,10859,9.44,73262.5,-5.03,-7.83,-8.17,0,*51
1515708337.59,10860,9.44,73262.8,-5.03,-7.77,-8.17,0,*50
1515708338.86,10861,9.44,73262.5,-5.03,-7.77,-8.07,0,*50
1515708340.12,10862,9.44,73258.3,-5.03,-7.69,-8.03,0,*58
1515708341.36,10863,9.44,73260.3,-5.01,-7.77,-8.03,0,*54
1515708342.64,10864,9.44,73264.5,-5.03,-7.77,-8.07,0,*55
1515708343.88,10865,9.44,73262.5,-5.01,-7.77,-8.07,0,*56
1515708345.1,10866,9.44,73260.5,-5.01,-7.77,-8.17,0,*54
1515708346.37,10867,9.44,73262.3,-5.03,-7.77,-8.07,0,*56
1515708347.65,10868,9.44,73264.3,-5.03,-7.77,-8.07,0,*59
1515708348.88,10869,9.44,73264.5,-5.01,-7.77,-8.03,0,*5E
1515708350.12,10870,9.44,73262.5,-5.01,-7.77,-8.03,0,*56
1515708351.36,10871,9.44,73260.8,-5.01,-7.69,-8.03,0,*58
1515708352.62,10872,9.44,73258.5,-5.03,-7.69,-8.03,0,*59
1515708353.89,10873,9.44,73264.5,-5.03,-7.69,-7.95,0,*58
1515708355.15,10874,9.44,73262.3,-5.03,-7.69,-7.95,0,*5F
1515708356.39,10875,9.44,73262.5,-5.01,-7.77,-7.95,0,*53
1515708357.6,10876,9.44,73264.0,-5.03,-7.83,-8.17,0,*5C
1515708358.88,10877,9.44,73262.0,-5.03,-7.77,-8.07,0,*57
1515708360.15,10878,9.44,73264.0,-5.03,-7.77,-8.07,0,*58
1515708361.41,10879,9.44,73260.3,-5.03,-7.69,-8.03,0,*52
1515708362.68,10880,9.44,73264.3,-5.03,-7.77,-8.03,0,*5B
1515708363.89,10881,9.44,73260.0,-5.01,-7.83,-8.03,0,*53
1515708365.14,10882,9.44,73264.3,-5.03,-7.83,-8.07,0,*56
1515708366.42,10883,9.44,73266.8,-5.03,-7.77,-8.07,0,*5C
1515708367.69,10884,9.44,73262.5,-5.03,-7.77,-8.07,0,*5B
1515708368.93,10885,9.44,73264.0,-5.01,-7.77,-7.95,0,*5C
1515708370.17,10886,9.44,73264.5,-5.01,-7.69,-8.03,0,*50
1515708371.41,10887,9.44,73262.0,-5.01,-7.69,-8.07,0,*55
1515708372.68,10888,9.44,73262.3,-5.03,-7.69,-8.03,0,*5C
1515708373.94,10889,9.44,73260.5,-5.03,-7.77,-8.03,0,*52
1515708375.2,10890,9.44,73266.3,-5.03,-7.77,-8.03,0,*5A
1515708376.45,10891,9.44,73262.8,-5.01,-7.69,-8.07,0,*52
1515708377.7,10892,9.44,73262.3,-5.01,-7.69,-8.07,0,*51
1515708378.94,10893,9.44,73262.5,-5.01,-7.69,-8.03,0,*54
1515708380.17,10894,9.44,73264.5,-5.01,-7.77,-8.03,0,*5C
1515708381.42,10895,9.44,73266.3,-5.03,-7.83,-8.07,0,*50
1515708382.64,10896,9.44,73262.5,-5.01,-7.69,-8.17,0,*54
1515708383.91,10897,9.44,73266.0,-5.03,-7.77,-8.07,0,*59
1515708385.15,10898,9.44,73266.3,-5.01,-7.77,-7.95,0,*50
1515708386.39,10899,9.44,73266.0,-5.01,-7.77,-8.03,0,*51
1515708387.65,10900,9.44,73262.3,-5.03,-7.77,-8.03,0,*52
1515708388.89,10901,9.44,73262.3,-5.01,-7.69,-8.03,0,*5E
1515708390.13,10902,9.44,73260.3,-5.03,-7.83,-8.03,0,*5B
1515708391.37,10903,9.44,73266.8,-5.01,-7.77,-8.03,0,*53
1515708392.6,10904,9.44,73266.8,-5.01,-7.69,-8.03,0,*5B
1515708393.84,10905,9.44,73266.0,-5.01,-7.69,-8.03,0,*5A
1515708395.09,10906,9.44,73262.5,-5.01,-7.77,-8.07,0,*52
1515708396.33,10907,9.44,73262.0,-5.01,-7.77,-8.03,0,*57
1515708397.59,10908,9.44,73264.8,-5.03,-7.77,-8.03,0,*5A
1515708398.85,10909,9.44,73262.3,-5.03,-7.77,-8.03,0,*5B
1515708400.12,10910,9.44,73262.5,-5.03,-7.77,-8.03,0,*53
1515708401.36,10911,9.44,73262.3,-5.01,-7.77,-7.95,0,*50
1515708402.6,10912,9.44,73264.0,-5.01,-7.77,-8.03,0,*53
1515708403.82,10913,9.44,73266.3,-5.01,-7.83,-8.07,0,*5D
1515708405.09,10914,9.44,73266.3,-5.03,-7.77,-8.07,0,*53
1515708406.36,10915,9.44,73262.8,-5.03,-7.77,-8.03,0,*56
1515708407.63,10916,9.44,73262.3,-5.03,-7.77,-8.07,0,*51
1515708408.88,10917,9.44,73264.3,-5.01,-7.69,-8.07,0,*5D
1515708410.14,10918,9.44,73262.5,-5.03,-7.69,-8.03,0,*54
1515708411.4,10919,9.44,73262.0,-5.03,-7.69,-8.03,0,*55
1515708412.65,10920,9.44,73262.3,-5.01,-7.77,-8.07,0,*56
1515708413.9,10921,9.44,73264.5,-5.01,-7.77,-8.07,0,*57
1515708415.14,10922,9.44,73266.5,-5.01,-7.69,-8.03,0,*5F
1515708416.35,10923,9.44,73264.8,-5.01,-7.83,-8.03,0,*5A
1515708417.6,10924,9.44,73264.3,-5.01,-7.77,-8.07,0,*52
1515708418.84,10925,9.44,73262.3,-5.01,-7.77,-8.03,0,*57
1515708420.07,10926,9.44,73262.5,-5.01,-7.69,-8.03,0,*5B
1515708421.31,10927,9.44,73262.5,-5.01,-7.77,-8.03,0,*55
1515708422.55,10928,9.44,73266.8,-5.01,-7.69,-8.03,0,*55
1515708423.81,10929,9.44,73262.8,-5.03,-7.69,-8.03,0,*56
1515708425.06,10930,9.44,73262.5,-5.01,-7.77,-8.07,0,*57
1515708426.31,10931,9.44,73262.8,-5.01,-7.77,-8.07,0,*56
1515708427.57,10932,9.44,73262.8,-5.03,-7.69,-8.03,0,*5C
1515708428.81,10933,9.44,73266.8,-5.01,-7.77,-8.03,0,*50
1515708430.05,10934,9.44,73266.8,-5.01,-7.69,-8.03,0,*58
1515708431.28,10935,9.44,73262.5,-5.01,-7.69,-7.95,0,*59
1515708432.52,10936,9.44,73262.5,-5.01,-7.69,-8.03,0,*5A
1515708433.78,10937,9.44,73266.5,-5.03,-7.69,-8.03,0,*59
1515708435.02,10938,9.44,73264.0,-5.01,-7.77,-7.95,0,*5B
1515708436.26,10939,9.44,73262.8,-5.01,-7.69,-7.95,0,*55
1515708437.5,10940,9.44,73262.8,-5.01,-7.77,-8.03,0,*54
1515708438.74,10941,9.44,73266.3,-5.01,-7.77,-8.03,0,*55
1515708440.0,10942,9.44,73268.8,-5.03,-7.69,-8.03,0,*5B
1515708441.24,10943,9.44,73262.5,-5.01,-7.69,-7.95,0,*58
1515708442.47,10944,9.44,73264.0,-5.01,-7.77,-8.03,0,*50
1515708443.74,10945,9.44,73262.5,-5.03,-7.69,-8.03,0,*5C
1515708444.97,10946,9.44,73264.0,-5.01,-7.69,-8.03,0,*5D
1515708446.21,10947,9.44,73266.3,-5.01,-7.69,-7.95,0,*5C
1515708447.45,10948,9.44,73266.8,-5.01,-7.77,-8.03,0,*5C
1515708448.69,10949,9.44,73266.5,-5.01,-7.77,-8.03,0,*5D
1515708449.95,10950,9.44,73264.5,-5.03,-7.77,-7.95,0,*57
1515708451.22,10951,9.44,73266.3,-5.03,-7.69,-7.95,0,*59
1515708452.45,10952,9.44,73266.3,-5.01,-7.77,-8.03,0,*57
1515708453.69,10953,9.44,73266.3,-5.01,-7.77,-8.03,0,*56
1515708454.93,10954,9.44,73260.8,-5.01,-7.77,-7.95,0,*51
1515708456.17,10955,9.44,73264.0,-5.01,-7.77,-8.03,0,*50
1515708457.43,10956,9.44,73266.0,-5.03,-7.69,-7.95,0,*5E
1515708458.69,10957,9.44,73266.8,-5.03,-7.77,-7.95,0,*50
1515708459.93,10958,9.44,73266.3,-5.01,-7.77,-8.03,0,*5D
1515708461.2,10959,9.44,73266.3,-5.03,-7.69,-7.95,0,*51
1515708462.43,10960,9.44,73264.5,-5.01,-7.77,-8.03,0,*56
1515708463.67,10961,9.44,73264.5,-5.01,-7.69,-7.95,0,*58
1515708464.95,10962,9.44,73266.5,-4.97,-7.73,-7.99,0,*52
1515708466.23,10963,9.44,73260.8,-4.97,-7.73,-7.91,0,*5B
1515708467.51,10964,9.44,73262.8,-4.97,-7.73,-7.99,0,*54
1515708468.78,10965,9.44,73264.5,-4.97,-7.73,-7.99,0,*55
1515708470.03,10966,9.44,73264.3,-5.01,-7.77,-8.07,0,*54
1515708471.27,10967,9.44,73262.5,-5.01,-7.77,-7.95,0,*51
1515708472.51,10968,9.44,73266.8,-5.01,-7.69,-8.03,0,*51
1515708473.77,10969,9.44,73266.0,-5.03,-7.77,-7.95,0,*5D
1515708475.01,10970,9.44,73264.0,-5.01,-7.77,-7.95,0,*57
1515708476.27,10971,9.44,73264.8,-5.03,-7.69,-8.03,0,*5B
1515708477.51,10972,9.44,73260.8,-5.01,-7.77,-7.95,0,*55
1515708478.75,10973,9.44,73264.5,-5.01,-7.69,-8.03,0,*5B
1515708479.96,10974,9.44,73264.8,-5.01,-7.83,-8.03,0,*58
1515708481.24,10975,9.44,73264.0,-4.97,-7.65,-7.91,0,*5B
1515708482.52,10976,9.44,73262.8,-4.97,-7.73,-7.99,0,*57
1515708483.75,10977,9.44,73264.3,-5.01,-7.91,-7.95,0,*58
1515708484.99,10978,9.44,73260.5,-5.01,-7.77,-7.95,0,*5F
1515708486.23,10979,9.44,73266.5,-5.01,-7.77,-8.03,0,*5E
1515708487.49,10980,9.44,73266.5,-5.03,-7.77,-8.03,0,*5A
1515708488.73,10981,9.44,73264.8,-5.01,-7.77,-8.03,0,*59
1515708489.97,10982,9.44,73264.3,-5.01,-7.77,-7.95,0,*5A
1515708491.21,10983,9.44,73266.8,-5.01,-7.69,-8.03,0,*54
1515708492.44,10984,9.44,73266.5,-5.01,-7.77,-7.95,0,*5C
1515708493.68,10985,9.44,73264.8,-5.01,-7.77,-8.03,0,*5D
1515708494.96,10986,9.44,73264.3,-4.97,-7.73,-7.99,0,*58
1515708496.2,10987,9.44,73266.5,-5.01,-7.77,-7.95,0,*5F
1515708497.44,10988,9.44,73266.0,-5.01,-7.77,-8.03,0,*50
1515708498.67,10989,9.44,73270.5,-5.01,-7.91,-7.95,0,*59
1515708499.89,10990,9.44,73268.3,-5.01,-7.83,-7.95,0,*52
1515708501.1,10991,9.44,73262.3,-5.01,-7.83,-8.03,0,*53
1515708502.32,10992,9.44,73266.8,-5.01,-7.83,-7.95,0,*50
1515708503.55,10993,9.44,73262.5,-5.01,-7.77,-7.95,0,*5A
1515708504.83,10994,9.44,73266.5,-4.97,-7.77,-7.99,0,*5F
1515708506.07,10995,9.44,73266.5,-4.97,-7.87,-7.99,0,*51
1515708507.34,10996,9.44,73260.0,-4.97,-7.77,-7.99,0,*5D
1515708508.62,10997,9.44,73266.3,-4.97,-7.77,-7.91,0,*54
1515708509.83,10998,9.44,73264.5,-5.01,-7.83,-7.95,0,*5A
1515708511.05,10999,9.44,73264.8,-5.01,-7.83,-8.03,0,*5B
1515708512.29,11000,9.44,73264.5,-4.97,-7.87,-7.91,0,*5D
1515708513.54,11001,9.44,73264.0,-4.97,-7.87,-7.91,0,*5C
1515708514.78,11002,9.44,73266.3,-5.01,-7.91,-7.95,0,*52
1515708516.0,11003,9.44,73264.8,-5.01,-7.83,-8.07,0,*54
1515708517.25,11004,9.44,73264.0,-4.97,-7.87,-7.91,0,*59
1515708518.47,11005,9.44,73264.3,-4.95,-7.87,-7.91,0,*5A
1515708519.7,11006,9.44,73264.5,-5.01,-7.91,-8.03,0,*56
1515708520.92,11007,9.44,73264.5,-5.01,-7.83,-8.03,0,*54
1515708522.15,11008,9.44,73270.8,-5.01,-7.91,-8.03,0,*58